Other Public Products
Issued by NWS Grand Forks, ND

Home | Current Version | Previous Version | Graphics & Text | Print | Product List | Glossary On
Versions: 1 2 3 4 5 6 7 8 9 10 11 12 13 14 15 16 17 18 19 20 21 22 23 24 25 26 27 28 29 30 31 32 33 34 35 36 37 38 39 40 41 42 43 44 45 46 47 48 49 50
000
FPUS83 KFGF 261131
OPUFGF
PRAIRIE TO PINES WEATHER ROUNDUP
NATIONAL WEATHER SERVICE EASTERN NORTH DAKOTA/GRAND FORKS ND
600 AM CDT THU MAY 26 2016

 **SATELLITE DATA USED TO AUGMENT SKY COVER AT AUTOMATED STATIONS**
 *****  WEATHER ACROSS EASTERN NORTH DAKOTA  *****

CITY           SKY/WX    TMP DP  RH WIND       PRES   REMARKS
GRAND FORKS    MOCLDY    57  55  93 SW3       29.71S
GRAND FORKS AF CLOUDY    55  55 100 W5        29.71F
GRAND CITY NWS   N/A     55 N/A N/A MISG        N/A
BUXTON           N/A     56  56  99 SW3         N/A
DEVILS LAKE    CLOUDY    55  54  94 W6        29.73F
FARGO          CLEAR     54  51  90 W7        29.73S
WAHPETON ARPT  SUNNY     50  46  87 S3        29.78R
$$

 *****  WEATHER ACROSS CENTRAL AND WESTERN NORTH DAKOTA  *****

CITY           SKY/WX    TMP DP  RH WIND       PRES   REMARKS
JAMESTOWN      CLOUDY    55  53  93 W15       29.75R
BISMARCK       CLEAR     45  44  97 SW3       29.80S
MINOT          CLOUDY    58  54  86 W8        29.75S
MINOT AFB      CLOUDY    55  55 100 NW5       29.74S FOG
GARRISON         N/A     49  48  97 W9        29.78R
WILLISTON      FOG       47  46  97 SW6       29.81R VSB 3/4
DICKINSON      CLEAR     41  38  89 SW3       29.80F
HETTINGER      CLEAR     35  34  96 W5        29.86S
$$

 *****  OTHER OBSERVATIONS NORTHEAST NORTH DAKOTA  *****

CITY           SKY/WX    TMP DP  RH WIND       PRES   REMARKS
WALHALLA       FAIR      55  55 100 NW7       29.68R
LANGDON        CLOUDY    55  55 100 NW12      29.71S
CAVALIER       CLOUDY    57  55  94 W10       29.67S
GRAFTON        PTSUNNY   57  57 100 SW8       29.71S
CANDO          CLOUDY    54  54 100 N10       29.76S
FORT TOTTEN      N/A     54  54 100 CALM      29.95S
ROLLA          PTSUNNY   54  54 100 N9        29.76R
RUGBY          CLOUDY    55  55 100 CALM      29.75R
 ***** THE ABOVE OBSERVATIONS ARE NON NWS ARE NOT QUALITY
        CONTROLLED AND MAY MIS-REPORT RAIN FOR SNOW...
$$

 *****  OTHER OBSERVATIONS SOUTHEAST NORTH DAKOTA *****

CITY           SKY/WX    TMP DP  RH WIND       PRES   REMARKS
COOPERSTOWN    NOT AVBL
VALLEY CITY    CLOUDY    54  54 100 W14       29.77R FOG
OAKES            N/A    N/A N/A N/A MISG        N/A
GWINNER        FAIR      54  52  94 SW14      29.80R
SHEYENNE NWR     N/A     47  47 100 SW5       29.95
BUFFALO          N/A     52  50  91 SW6         N/A
WYNDMERE         N/A     55  54  94 W13         N/A
 ***** THE ABOVE OBSERVATIONS ARE NON NWS ARE NOT QUALITY
       CONTROLLED AND MAY MIS-REPORT RAIN FOR SNOW...
$$

  *****  WEATHER ACROSS NORTHERN MINNESOTA  *****

CITY           SKY/WX    TMP DP  RH WIND       PRES   REMARKS
FLAG ISLAND    CLOUDY    57  55  94 SE17      29.69S
WARROAD        CLOUDY    57  54  88 S5        29.70S
ROSEAU         CLOUDY    59  54  82 S8        29.69S
HALLOCK        CLOUDY    57  55  94 SW13      29.67S
THF RVR FALLS  MOCLDY    55  54  94 S9        29.72F
HALSTAD        NOT AVBL
FOSSTON        CLEAR     50  50 100 S7        29.75R FOG
BAUDETTE       CLOUDY    54  53  97 SE8       29.71F
WASKISH        CLOUDY    55  55 100 CALM      29.74R
CROOKSTON      CLEAR     55  55 100 W8        29.72F FOG
$$
  *****  WEATHER ACROSS CENTRAL AND WEST MINNESOTA  *****

CITY           SKY/WX    TMP DP  RH WIND       PRES   REMARKS
BEMIDJI        CLOUDY    55  55  99 S5        29.75R FOG
PARK RAPIDS    PTCLDY    58  55  90 S5        29.75R FOG
WADENA         CLOUDY    54  54 100 SW7       29.76R
DETROIT LAKES  CLEAR     54  54 100 SW3       29.78R
MOORHEAD       CLEAR     54  52  94 S3        29.75R
FERGUS FALLS   CLEAR     52  52 100 CALM      29.76R FOG
ELBOW LAKE     PTSUNNY   52  52  99 NW5       29.79R FOG
MORRIS MN      PTCLDY    52  48  87 S3        29.80R
STAPLES        FOG       55  55 100 S6        29.77R VSB 1/2
WHEATON        PTCLDY    55  55 100 CALM      29.81R
$$
  *****  WEATHER ELSEWHERE ACROSS MINNESOTA  *****

CITY           SKY/WX    TMP DP  RH WIND       PRES   REMARKS
DULUTH         FOG       45  44  97 E6        29.80R VSB 1/8
INTRNTL FALLS  CLOUDY    54  52  93 E6        29.75S
ELY            CLOUDY    54  54 100 SE3       29.79R
CLOQUET        FOG       45  43  93 CALM      29.81R VSB 1/4
BRAINERD       FOG       58  58 100 SE5       29.77R VSB 1/2
HIBBING        FOG       50  50 100 CALM      29.78S VSB 1/4
ALEXANDRIA     MOCLDY    57  51  80 SW9       29.80R
SAINT CLOUD    FOG       59  59 100 CALM      29.77F VSB 1/4
MINNEAPOLIS    CLOUDY    62  56  80 S6        29.77R
$$

  *****  WEATHER ACROSS SOUTH DAKOTA  *****

CITY           SKY/WX    TMP DP  RH WIND       PRES   REMARKS
SIOUX FALLS    PTCLDY    52  48  86 E5        29.84S
BROOKINGS      CLEAR     52  49  89 W3        29.85R
WATERTOWN      CLEAR     55  50  83 W9        29.83R
HURON          CLEAR     49  47  93 CALM      29.85R
SISSETON         N/A     56  51  84 W15       29.78R
ABERDEEN       CLEAR     48  46  93 W5        29.82R
MITCHELL       CLEAR     56  52  86 W5        29.87R
PIERRE         CLEAR     48  46  93 NW5       29.83R
MOBRIDGE       CLEAR     48  43  82 N7        29.80F
RAPID CITY     CLEAR     46  42  86 CALM      29.88S
$$

  *****  SOME WEATHER IN NEARBY STATES *****

CITY           SKY/WX    TMP DP  RH WIND       PRES   REMARKS
GLASGOW MT     CLEAR     44  42  93 W6        29.83S
GREAT FALLS MT PTCLDY    42  39  89 SW6       29.95R
CHEYENNE WY    CLEAR     39  32  76 W10       30.02F
SCOTTSBLUFF NE CLEAR     44  39  82 NW9       29.94F
OMAHA NE       PTCLDY    60  56  86 SE5       29.87R
DES MOINES IA  CLOUDY    62  58  86 S7        29.88R
DAVENPORT IA   TSTM      66  61  84 NW29G45   29.94R SQUALL
CHICAGO IL     MOCLDY    68  66  93 SW10      29.91R
EAU CLAIRE WI  LGT RAIN  63  59  87 SW12      29.79F
LA CROSSE WI   RAIN      62  59  90 VRB5      29.86R FOG
$$

  *****  SOME NATIONAL WEATHER *****

CITY           SKY/WX    TMP DP  RH WIND       PRES   REMARKS
LA GUARDIA NY  PTSUNNY   74  56  53 CALM      30.09R
RALEIGH NC     PTCLDY    66  61  84 S3        30.19R
ATLANTA GA     CLOUDY    71  59  65 W5        30.19R
NEW ORLEANS LA MOCLDY    75  72  90 E3        30.07R
OKLAHOMA CITY  CLOUDY    77  74  90 S15       29.86S
ALBUQUERQUE NM CLEAR     51  15  23 S7        29.98R
SALT LAKE CITY PTCLDY    50  43  77 W5        29.99F
LOS ANGELES CA PTCLDY    56  52  86 E3        30.04F
BOISE ID       CLEAR     49  41  74 S5        30.01S
SEATTLE WA     DRIZZLE   52  42  69 S9        30.20S
$$

*** WEATHER ACROSS MANITOBA...SASKATCHEWAN AND ONTARIO ***
                ***ONTARIO***

CITY           SKY/WX    TMP DP  RH WIND       PRES   REMARKS
GERALDTON      LGT RAIN  52  45  76 NE5       29.93F
THUNDER BAY    MOCLDY    52  48  87 VRB3      29.87S
SIOUX LOOKOUT  MOCLDY    55  50  82 SE5       29.83R
TORONTO        PTSUNNY   63  55  77 SE2       30.03S
BIG TROUT LK   CLEAR     52  43  71 SE7       29.90F
PICKLE LAKE    MOCLDY    54  45  71 E7        29.89
DRYDEN         CLOUDY    54  48  82 E6        29.79S
KENORA         MOCLDY    55  52  88 SE9       29.72F
$$
                *** MANITOBA***

CITY           SKY/WX    TMP DP  RH WIND       PRES   REMARKS
BRANDON        CLOUDY    54  52  94 N10       29.75F
DAUPHIN        LGT RAIN  54  52  94 W5        29.79F
ISLAND LAKE    MOCLDY    52  50  93 E5        29.82S
PILOT MOUND      N/A     54  52  94 N10         N/A
THE PAS        PTCLDY    45  43  93 CALM      29.85S
THOMPSON       PTCLDY    43  39  87 CALM      29.84S
WINNIPEG       FOG       57  57 100 E5        29.61S VSB 1
LYNN LAKE      FOG       41  39  93 N8        29.91R VSB 1/2
CHURCHILL      CLOUDY    34  32  93 E13       29.91R WCI  25
GILLAM         PTCLDY    46  45  93 NE6       29.85S
$$
                ***SASKATCHEWAN***

CITY           SKY/WX    TMP DP  RH WIND       PRES   REMARKS
ESTEVAN        LGT RAIN  52  52 100 CALM      29.76S
KINDERSLEY     MOCLDY    46  45  93 VRB2      29.91S
LLOYDMINSTER   CLEAR     45  43  93 SW2       29.90F
PRINCE ALBERT  PTCLDY    43  43 100 W5        29.88R
REGINA         LGT RAIN  52  52 100 NE14      29.83S
YORKTON        LGT RAIN  54  52  94 N6        29.85S   C1F1C2F2C3F3C4F4C5F5C6F6C7F7C8F8C9F9CaFaCbFbCcFcCdFdCe!



USA.gov is the U.S. government's official web portal to all federal, state and local government web resources and services.